Waarnemingen

Advertentie
Mijn weer
Storlien-Visjovalen A, Zweden (2207): temperatuur & dauwpunt: 18.02.2018 13:00:00 - 24.02.2018 13:00:00 (CET)Storlien-Visjovalen A, Zweden (2207): windsnelheid & windstoten: 18.02.2018 13:00:00 - 24.02.2018 13:00:00 (CET)Storlien-Visjovalen A, Zweden (2207): windrichting: 18.02.2018 13:00:00 - 24.02.2018 13:00:00 (CET)Storlien-Visjovalen A, Zweden (2207): luchtdruk: 18.02.2018 13:00:00 - 24.02.2018 13:00:00 (CET)Storlien-Visjovalen A, Zweden (2207): zicht: 18.02.2018 13:00:00 - 24.02.2018 13:00:00 (CET)Storlien-Visjovalen A, Zweden (2207): neerslag: 18.02.2018 13:00:00 - 24.02.2018 13:00:00 (CET)
Datum & Tijd tt [°C] td [°C] ff [km/u] ff [kn] fx [km/u] fx [kn] dd ppp [hPa] vv [km] rr [mm]
24.02.2018 13:00:00 - - - - - - - - - -
24.02.2018 12:00:00 -7,9 -10,4 10 5 14 7 OZO 1035,2 41 0,0
24.02.2018 11:00:00 -9,1 -11,2 5 3 14 7 OZO 1035,2 28 0,0
24.02.2018 10:00:00 -10,5 -12,4 3 2 20 11 WZW 1035,2 39 0,0
24.02.2018 09:00:00 -11,2 -12,8 8 4 20 11 OZO 1035,4 50 0,0
24.02.2018 08:00:00 -11,6 -12,9 3 2 10 5 OZO 1035,2 50 0,0
24.02.2018 07:00:00 -11,5 -12,9 3 2 13 7 O 1035,2 50 0,0
24.02.2018 06:00:00 -11,7 -13,0 4 2 13 7 O 1035,1 50 0,0
24.02.2018 05:00:00 -11,3 -12,5 7 4 11 6 OZO 1034,6 50 0,0
24.02.2018 04:00:00 -11,3 -12,6 4 2 7 4 OZO 1034,3 8 0,1
24.02.2018 03:00:00 -10,4 -11,9 3 1 8 4 OZO 1034,1 6 0,1
24.02.2018 02:00:00 -10,3 -11,8 4 2 8 4 OZO 1034,1 4,8 0,1
24.02.2018 01:00:00 -10,1 -11,6 5 3 8 5 OZO 1033,7 4,6 0,1
24.02.2018 00:00:00 -10,2 -11,5 4 2 8 5 OZO 1033,6 8 0,1
23.02.2018 23:00:00 -10,2 -11,7 4 2 8 4 OZO 1033,1 15 0,0
23.02.2018 22:00:00 -10,3 -11,8 5 3 8 5 ZO 1032,8 7 0,2
23.02.2018 21:00:00 -10,0 -11,5 3 2 9 5 ZZO 1032,4 3,2 0,3
23.02.2018 20:00:00 -9,9 -11,4 6 3 10 5 OZO 1031,9 3,2 0,2
23.02.2018 19:00:00 -9,6 -10,9 4 2 11 6 OZO 1031,5 5 0,2
23.02.2018 18:00:00 - - - - 11 6 - - - -
23.02.2018 17:00:00 -8,8 -10,3 6 4 10 5 OZO 1030,9 3,6 0,2
23.02.2018 16:00:00 -8,2 -10,3 4 2 10 5 O 1030,5 4,0 0,1
23.02.2018 15:00:00 -8,0 -10,2 4 2 10 5 O 1029,8 9 0,1
23.02.2018 14:00:00 -7,3 -9,7 4 2 10 6 ONO 1029,6 8 0,0
23.02.2018 13:00:00 -7,3 -9,5 4 2 11 6 O 1029,3 20 0,0
23.02.2018 12:00:00 -7,5 -9,4 6 4 11 6 OZO 1029,2 44 0,0
23.02.2018 11:00:00 -7,2 -8,8 5 3 13 7 ONO 1028,8 45 0,0
23.02.2018 10:00:00 -7,2 -8,6 8 4 19 10 O 1028,4 29 0,1
23.02.2018 09:00:00 -6,8 -7,9 7 4 19 10 O 1027,9 6 0,5
23.02.2018 08:00:00 -3,9 -4,7 5 3 18 10 O 1026,5 1,6 0,4
23.02.2018 07:00:00 -3,6 -4,3 2 1 6 3 O 1026,0 2,4 0,2
23.02.2018 06:00:00 -3,1 -3,8 0 0 8 4 N 1025,7 2,6 0,2
23.02.2018 05:00:00 -3,3 -4,0 0 0 8 4 N 1025,6 11 0,1
23.02.2018 04:00:00 -3,1 -3,8 2 1 5 3 OZO 1025,6 24 0,0
23.02.2018 03:00:00 -3,0 -3,8 2 1 7 4 N 1025,7 33 0,0
23.02.2018 02:00:00 -2,7 -3,5 4 2 11 6 WNW 1025,7 44 0,0
23.02.2018 01:00:00 -2,3 -3,0 5 3 11 6 NW 1025,7 44 0,1
23.02.2018 00:00:00 -3,2 -3,7 2 1 6 4 O 1026,0 16 0,1
22.02.2018 23:00:00 -2,8 -3,5 0 0 7 4 N 1026,0 1,9 0,3
22.02.2018 22:00:00 -2,9 -3,6 3 1 7 4 ZW 1026,2 8 0,0
22.02.2018 21:00:00 -2,6 -3,4 2 1 13 7 WZW 1026,3 8 0,0
22.02.2018 20:00:00 -2,5 -3,6 3 2 13 7 NNW 1026,1 36 0,0
22.02.2018 19:00:00 -2,0 -3,0 4 2 14 8 NW 1026,1 33 0,0
22.02.2018 18:00:00 -2,0 -3,1 0 0 30 16 N 1026,3 33 0,0
22.02.2018 17:00:00 -2,1 -3,1 5 3 31 17 OZO 1026,0 16 0,0
22.02.2018 16:00:00 -1,7 -2,5 19 10 31 17 WNW 1025,7 9 0,0
22.02.2018 15:00:00 -1,3 -2,0 15 8 28 15 WNW 1026,0 10 0,1
22.02.2018 14:00:00 -1,0 -2,0 9 5 21 11 NW 1026,2 4,5 0,1
22.02.2018 13:00:00 -0,7 -1,7 5 3 13 7 NNW 1026,2 6 0,1
22.02.2018 12:00:00 -1,0 -2,1 5 3 9 5 NNW 1026,2 1,0 0,4
22.02.2018 11:00:00 -1,1 -2,5 0 0 5 3 N 1026,3 3,5 0,0
22.02.2018 10:00:00 -3,1 -4,2 0 0 5 3 N 1026,7 2,5 0,0
22.02.2018 09:00:00 -4,3 -5,1 2 1 6 3 NNW 1026,9 6 0,1
22.02.2018 08:00:00 -6,5 -7,4 2 1 6 3 WZW 1027,0 19 0,0
22.02.2018 07:00:00 -7,1 -8,0 0 0 6 3 N 1027,2 8 0,0
22.02.2018 06:00:00 -7,6 -8,7 0 0 5 3 N 1027,2 3,1 0,1
22.02.2018 05:00:00 -7,8 -8,9 0 0 4 2 N 1027,5 1,9 0,1
22.02.2018 04:00:00 -8,2 -9,3 0 0 4 2 N 1027,4 1,8 0,1
22.02.2018 03:00:00 -8,4 -9,6 0 0 4 2 N 1027,3 2,5 0,2
22.02.2018 02:00:00 -8,6 -9,8 0 0 4 2 N 1027,4 2,8 0,2
22.02.2018 01:00:00 -8,8 -10,0 0 0 4 2 N 1027,2 1,7 0,2
22.02.2018 00:00:00 -9,0 -10,2 0 0 4 2 N 1027,2 1,6 0,7
21.02.2018 23:00:00 -9,1 -10,4 0 0 6 3 N 1026,9 1,5 0,9
21.02.2018 22:00:00 -9,2 -10,4 2 1 6 3 OZO 1026,4 0,8 1,2
21.02.2018 21:00:00 -9,2 -10,4 3 2 6 3 ZO 1025,9 0,6 1,3
21.02.2018 20:00:00 -9,2 -10,4 3 2 7 4 OZO 1025,4 1,1 1,0
21.02.2018 19:00:00 -9,2 -10,4 4 2 7 4 OZO 1024,9 1,7 0,6
21.02.2018 18:00:00 -9,1 -10,4 4 2 7 4 OZO 1024,3 0,9 0,9
21.02.2018 17:00:00 -8,9 -10,4 4 2 7 4 OZO 1023,7 2,0 0,4
21.02.2018 16:00:00 -8,6 -10,2 3 1 8 5 O 1023,8 1,1 1,1
21.02.2018 15:00:00 -8,4 -9,9 4 2 9 5 O 1023,7 0,6 1,6
21.02.2018 14:00:00 -8,8 -10,4 4 2 9 5 O 1023,6 0,8 2,0
21.02.2018 13:00:00 -9,0 -10,5 5 3 11 6 O 1023,5 0,5 1,5
21.02.2018 12:00:00 -9,4 -10,9 5 3 11 6 OZO 1023,6 0,8 1,5
21.02.2018 11:00:00 -9,6 -11,2 6 3 9 5 O 1023,6 1,1 0,5
21.02.2018 10:00:00 -9,7 -11,5 5 3 9 5 OZO 1023,6 5 0,2
21.02.2018 09:00:00 -10,0 -11,5 5 3 9 5 OZO 1023,6 5 0,2
21.02.2018 08:00:00 -10,2 -11,7 4 2 6 4 ZO 1023,5 8 0,1
21.02.2018 07:00:00 -10,2 -11,5 3 2 6 4 ZO 1023,3 20 0,0
21.02.2018 06:00:00 -10,5 -11,8 3 2 5 3 ZO 1023,5 31 0,0
21.02.2018 05:00:00 -11,0 -12,5 0 0 7 4 N 1023,9 15 0,0
21.02.2018 04:00:00 -10,7 -12,2 4 2 7 4 ZO 1024,0 44 0,0
21.02.2018 03:00:00 -11,5 -12,9 3 2 5 3 Z 1024,4 50 0,0
21.02.2018 02:00:00 -10,4 -12,0 3 2 5 3 ZZO 1024,5 33 0,1
21.02.2018 01:00:00 -10,3 -11,9 3 1 6 3 ZO 1025,0 15 0,0
21.02.2018 00:00:00 -10,2 -11,8 3 2 6 3 OZO 1025,1 26 0,1
20.02.2018 23:00:00 -10,3 -11,9 2 1 6 3 ZZO 1025,2 9 0,2
20.02.2018 22:00:00 -10,4 -11,9 2 1 8 5 ZZO 1025,5 6 0,4
20.02.2018 21:00:00 -10,7 -12,2 3 1 8 5 NNW 1025,5 13 0,5
20.02.2018 20:00:00 -10,8 -12,4 0 0 8 4 N 1025,5 1,0 0,4
20.02.2018 19:00:00 -10,8 -12,7 4 2 7 4 W 1025,4 9 0,0
20.02.2018 18:00:00 -10,8 -13,3 0 0 5 3 N 1025,5 29 0,0
20.02.2018 17:00:00 -10,9 -13,5 3 1 6 3 ZZO 1025,6 50 0,0
20.02.2018 16:00:00 -10,7 -13,5 2 1 8 4 O 1025,5 50 0,0
20.02.2018 15:00:00 -10,8 -13,7 4 2 8 4 O 1025,7 50 0,0
20.02.2018 14:00:00 -11,5 -14,4 4 2 8 4 OZO 1026,1 50 0,0
20.02.2018 13:00:00 -11,7 -15,4 3 1 7 4 ONO 1026,3 50 0,0
20.02.2018 12:00:00 -13,1 -16,0 4 2 7 4 O 1026,6 12 0,0
20.02.2018 11:00:00 -15,1 -16,6 0 0 4 2 N 1026,9 4,5 0,0
20.02.2018 10:00:00 -19,5 -21,2 0 0 5 3 N 1027,6 3,0 0,0
20.02.2018 09:00:00 -21,5 -23,3 2 1 5 3 O 1027,6 6 0,1
20.02.2018 08:00:00 -22,2 -24,3 0 0 4 2 N 1027,6 31 0,0
20.02.2018 07:00:00 -22,8 -25,0 0 0 4 2 N 1027,6 50 0,0
20.02.2018 06:00:00 -22,7 -25,2 0 0 4 2 N 1027,6 49 0,0
20.02.2018 05:00:00 -21,2 -23,3 0 0 4 2 N 1027,6 50 0,0
20.02.2018 04:00:00 -21,4 -23,5 2 1 5 3 WZW 1027,4 44 0,0
20.02.2018 03:00:00 -20,2 -22,2 0 0 5 3 N 1027,7 50 0,0
20.02.2018 02:00:00 -18,6 -20,2 0 0 4 2 N 1027,8 50 0,0
20.02.2018 01:00:00 -17,8 -19,4 0 0 5 3 N 1028,0 50 0,0
20.02.2018 00:00:00 -17,4 -19,2 0 0 6 3 N 1028,0 49 0,0
19.02.2018 23:00:00 -16,3 -18,1 3 2 7 4 WNW 1027,8 50 0,0
19.02.2018 22:00:00 -15,4 -16,8 2 1 7 4 W 1027,8 50 0,0
19.02.2018 21:00:00 -14,6 -16,1 2 1 9 5 Z 1028,1 50 0,0
19.02.2018 20:00:00 -13,6 -14,9 0 0 9 5 N 1028,0 46 0,0
19.02.2018 19:00:00 -13,6 -15,0 3 1 8 5 WNW 1028,1 50 0,0
19.02.2018 18:00:00 -13,1 -14,7 5 3 8 5 WNW 1028,1 43 0,0
19.02.2018 17:00:00 -11,0 -13,6 0 0 22 12 N 1027,7 50 0,0
19.02.2018 16:00:00 -8,1 -11,9 3 1 22 12 Z 1027,1 50 0,0
19.02.2018 15:00:00 -6,6 -11,0 5 3 21 11 Z 1026,4 50 0,0
19.02.2018 14:00:00 -5,2 -10,2 3 2 7 4 ZO 1026,2 50 0,0
19.02.2018 13:00:00 -6,8 -10,8 3 2 6 3 W 1026,4 50 0,0
19.02.2018 12:00:00 -10,1 -14,0 0 0 6 3 N 1026,8 49 0,0
19.02.2018 11:00:00 -13,3 -15,0 0 0 6 3 N 1027,1 3,0 0,0
19.02.2018 10:00:00 -16,5 -18,0 4 2 6 3 OZO 1027,2 46 0,0
19.02.2018 09:00:00 -21,4 -23,6 0 0 5 3 N 1027,7 50 0,0
19.02.2018 08:00:00 -21,9 -23,9 3 2 7 4 W 1027,1 49 0,0
19.02.2018 07:00:00 -21,5 -23,6 3 1 7 4 WZW 1026,6 16 0,0
19.02.2018 06:00:00 -20,0 -21,7 3 2 6 3 W 1025,9 49 0,0
19.02.2018 05:00:00 -21,8 -23,9 0 0 6 3 N 1025,8 50 0,0
19.02.2018 04:00:00 -20,3 -22,3 2 1 7 4 OZO 1025,2 40 0,0
19.02.2018 03:00:00 -20,6 -22,5 4 2 9 5 WNW 1025,3 7 0,0
19.02.2018 02:00:00 -20,0 -21,9 4 2 9 5 OZO 1024,9 50 0,0
19.02.2018 01:00:00 -20,5 -22,6 3 1 9 5 O 1024,6 50 0,0
19.02.2018 00:00:00 -19,4 -21,4 2 1 5 3 NO 1024,2 50 0,0
18.02.2018 23:00:00 -18,9 -20,7 0 0 8 4 N 1024,0 37 0,0
18.02.2018 22:00:00 -19,0 -21,0 2 1 9 5 N 1023,7 50 0,0
18.02.2018 21:00:00 -17,6 -19,2 3 1 9 5 N 1022,9 41 0,0
18.02.2018 20:00:00 -16,3 -17,8 3 2 9 5 ONO 1022,5 50 0,0
18.02.2018 19:00:00 -14,3 -16,1 4 2 10 6 O 1021,8 50 0,0
18.02.2018 18:00:00 -10,7 -13,0 3 2 16 9 ZO 1021,2 50 0,0
18.02.2018 17:00:00 -10,5 -13,0 4 2 16 9 W 1020,9 50 0,0
18.02.2018 16:00:00 -8,9 -11,9 3 1 9 5 ONO 1020,6 50 0,0
18.02.2018 15:00:00 -8,9 -11,6 6 3 9 5 ZO 1020,3 50 0,0
18.02.2018 14:00:00 -8,5 -9,7 3 2 11 6 ZO 1020,3 50 0,0
18.02.2018 13:00:00 -8,8 -9,7 7 4 11 6 OZO 1020,4 4,0 0,0

tt = temperatuur
td = dauwpunt
ff = windsnelheid
fx = windstoten
dd = windrichting
ppp = luchtdruk
vv = zicht
rr = neerslag

Weerstations in de omgeving